TimeCDT,TemperatureF,Dew PointF,Humidity,Sea Level PressureIn,VisibilityMPH,Wind Direction,Wind SpeedMPH,Gust SpeedMPH,PrecipitationIn,Events,Conditions,WindDirDegrees,DateUTC
12:53 AM,32.0,15.1,50,30.08,10.0,WSW,8.1,-,N/A,,Clear,250,2014-03-17 05:53:00
1:53 AM,30.0,15.1,54,30.06,10.0,West,6.9,-,N/A,,Clear,260,2014-03-17 06:53:00
2:53 AM,30.9,17.1,57,30.03,10.0,West,6.9,-,N/A,,Clear,280,2014-03-17 07:53:00
3:53 AM,32.0,17.1,54,29.99,10.0,West,5.8,-,N/A,,Clear,260,2014-03-17 08:53:00
4:53 AM,28.9,17.1,61,29.94,10.0,SW,5.8,-,N/A,,Clear,230,2014-03-17 09:53:00
5:53 AM,25.0,17.1,72,29.92,10.0,SSW,8.1,-,N/A,,Clear,210,2014-03-17 10:53:00
6:53 AM,26.1,16.0,66,29.91,10.0,SW,9.2,-,N/A,,Clear,230,2014-03-17 11:53:00
7:53 AM,28.0,17.1,63,29.88,10.0,South,6.9,-,N/A,,Clear,190,2014-03-17 12:53:00
8:53 AM,30.9,19.0,61,29.88,10.0,SSW,6.9,-,N/A,,Clear,210,2014-03-17 13:53:00
9:53 AM,42.1,19.9,41,29.83,10.0,SW,12.7,-,N/A,,Clear,220,2014-03-17 14:53:00
10:53 AM,52.0,19.9,28,29.77,10.0,SSW,16.1,-,N/A,,Clear,210,2014-03-17 15:53:00
11:53 AM,55.9,19.0,24,29.74,10.0,SW,17.3,-,N/A,,Clear,230,2014-03-17 16:53:00
12:53 PM,62.1,18.0,18,29.66,10.0,SSW,15.0,-,N/A,,Clear,200,2014-03-17 17:53:00
1:53 PM,68.0,15.1,13,29.60,10.0,SSW,19.6,-,N/A,,Clear,200,2014-03-17 18:53:00
2:53 PM,70.0,10.0,10,29.52,10.0,SSW,25.3,29.9,N/A,,Clear,200,2014-03-17 19:53:00
3:53 PM,73.0,7.0,8,29.45,10.0,SSW,24.2,33.4,N/A,,Clear,200,2014-03-17 20:53:00
4:53 PM,73.0,8.1,8,29.40,10.0,SSW,23.0,-,N/A,,Clear,200,2014-03-17 21:53:00
5:53 PM,78.1,5.0,6,29.34,9.0,SSW,29.9,41.4,N/A,,Clear,210,2014-03-17 22:53:00
6:53 PM,75.9,5.0,6,29.32,10.0,SW,24.2,34.5,N/A,,Clear,230,2014-03-17 23:53:00
7:53 PM,72.0,6.1,8,29.32,10.0,WSW,21.9,32.2,N/A,,Clear,240,2014-03-18 00:53:00
8:53 PM,63.0,9.0,12,29.33,10.0,SW,12.7,-,N/A,,Clear,220,2014-03-18 01:53:00
9:53 PM,59.0,10.9,15,29.31,10.0,SW,12.7,-,N/A,,Clear,230,2014-03-18 02:53:00
10:53 PM,57.0,10.9,16,29.29,10.0,SW,11.5,-,N/A,,Clear,220,2014-03-18 03:53:00
11:53 PM,48.0,10.9,22,29.29,10.0,South,12.7,-,N/A,,Clear,190,2014-03-18 04:53:00